Location: ??? ????
(38.0580°N, 23.1536°E)
Time: 23:10:06
(UTC+00:00)

Cosmos 1867 - Pass Details

Date: 13 December 2025
Orbit: 777 x 797 km, 65.0° (Epoch: 14 January)

Event Time Altitude Azimuth Distance (km) Brightness Sun altitude
Rises 16:08:06 0° 327° (NNW) 3,305 7.0 -11.5°
Reaches altitude 10° 16:10:32 10° 325° (NW) 2,371 6.2 -12.0°
Maximum altitude 16:15:57 70° 243° (WSW) 846 3.9 -13.0°
Drops below altitude 10° 16:21:20 10° 160° (SSE) 2,349 6.0 -14.0°
Sets 16:23:44 0° 158° (SSE) 3,272 6.7 -14.4°
